Regional Weather Roundup
Issued by NWS Lake Charles, LA

Current Version | Previous Version | Text Only | Print | Product List | Glossary On
Versions: 1 2 3 4 5 6 7 8 9 10 11 12 13 14 15 16 17 18 19 20 21 22 23 24 25 26 27
000
ASUS44 KLCH 241410
RWRLCH
REGIONAL WEATHER ROUNDUP
NATIONAL WEATHER SERVICE LAKE CHARLES LA
900 AM CDT SAT JUN 24 2017

Note: "fair" indicates few or no clouds below 12,000 feet with no
significant weather and/or obstructions to visibility.


ACROSS SOUTHEAST TEXAS

CITY           SKY/WX    TMP DP  RH WIND       PRES   REMARKS
BEAUMONT       PTSUNNY   79  73  82 NE8       30.01S THUNDER
BEAUMONT CITY  PTSUNNY  N/A N/A N/A MISG      30.02S THUNDER
ORANGE         TSTM      77  75  92 CALM      30.03F
JASPER           N/A     83  79  87 CALM      30.03R
$$

ACROSS CENTRAL LOUISIANA

CITY           SKY/WX    TMP DP  RH WIND       PRES   REMARKS
LEESVILLE      MOSUNNY   81  75  81 SE6       30.01S
FULLERTON      PTSUNNY   81  74  79 CALM      30.00R
ALEXANDRIA INT MOSUNNY   78  73  84 SE7       30.02R
ESLER FIELD    CLOUDY    76  73  91 E7        30.04R
DERIDDER       PTSUNNY   81  79  95 S7        30.03F
OAKDALE        MOSUNNY   79  74  85 SE5       30.02F
OPELOUSAS      FAIR      80  75  84 CALM      30.04R
$$

ACROSS SOUTHWEST AND SOUTH CENTRAL LOUISIANA

CITY           SKY/WX    TMP DP  RH WIND       PRES   REMARKS
SULPHUR        PTSUNNY   83  76  80 W3        30.02S
LAKE CHARLES   MOSUNNY   83  82  97 S5        30.01S
CHENNAULT INT  NOT AVBL
CAMERON PHI    SUNNY     84  79  84 S9        30.00F
DEQUINCY       FAIR      79  74  84 CALM      30.02S THUNDER
JENNINGS       FAIR     N/A N/A N/A CALM      30.02S
LAFAYETTE      PTSUNNY   82  79  90 SW7       30.03R
NEW IBERIA     MOSUNNY   83  77  82 SW7       30.03S HAZE
ABBEVILLE      FAIR      84  81  89 SW5       30.03S
PATTERSON      SUNNY     84  78  82 SW6       30.03S
SALT POINT       N/A     84  77  79 VRB5      30.01S
$$

SELECTED SITES ACROSS THE REGION

CITY           SKY/WX    TMP DP  RH WIND       PRES   REMARKS
HOUSTON BUSH   CLOUDY    76  72  87 NE9       30.01R THUNDER
HOUSTON HOBBY  CLOUDY    80  75  84 W20       30.00R THUNDER
GALVESTON      MOSUNNY   84  79  85 SE14      30.00R
COLLEGE STAT   CLOUDY    73  72  96 NW13      30.01F
CONROE         LGT RAIN  73  72  96 SW5       30.01F FOG
HUNTSVILLE     CLOUDY    79  72  79 CALM      30.03R
LUFKIN         CLOUDY    74  71  91 NE6       30.04R
SHREVEPORT     CLOUDY    74  73  97 N8        30.07R
MONROE         MOSUNNY   76  71  85 E5        30.06R
NATCHEZ MS     CLOUDY    75  71  87 N6        30.05F
BATON ROUGE    PTSUNNY   80  75  84 NW5       30.04R
N.O. INTL ARPT MOSUNNY   83  78  85 SW8       30.02R
SLIDELL        PTSUNNY   82  75  79 NW5       30.03R
$$

MARINE REPORTS

STATION/POSITION TIME  SKY/WX   TEMP    WIND        PRES    VSBY
                                AIR SEA DIR/SP/G
                 (UTC)          (F)     (DEG/KT/KT) (MB)    (MI)
BUOY 30 S HIGH I 1350            82 83  160/  8/ 10 1015.9R
WVE H/P(F/S)=  3/ 7

SEA RIM ST PARK  1300            82     180/  8/ 11 1016.4R
PORT ARTHUR      1348            82 83  150/  4/  6 1016.5R
SABINE PASS N    1348            84 85  160/  8/  9 1017.8R
TEXAS POINT      NOT AVBL
CALCASIEU PASS   1348            82 83  200/  8/  9   N/A
LK CHARLES BEACH 1348            82 81              1016.9R
MARSH ISLAND     1300            84                   N/A
FRESH WATER LOCK 1348            82 84  170/  7/  8 1016.4F
AMERADA PASS     1348            81 81   CALM  /  3 1016.9R
$$




USA.gov is the U.S. government's official web portal to all federal, state and local government web resources and services.